Regional Weather Roundup
Issued by NWS

Home | Current Version | Previous Version | Graphics & Text | Print | Product List | Glossary On
Versions: 1 2 3 4 5 6 7 8 9 10 11 12 13 14 15 16 17 18 19 20 21 22 23 24 25 26 27 28 29 30 31 32 33 34 35 36 37 38 39 40 41 42 43 44 45 46 47 48 49 50
022
ASUS43 KIND 101909
RWRIN

WEATHER ROUNDUP FOR INDIANA
NATIONAL WEATHER SERVICE INDIANAPOLIS IN
200 PM EST SAT DEC 10 2016

NOTE: "FAIR" INDICATES FEW OR NO CLOUDS BELOW 12,000 FEET WITH NO
SIGNIFICANT WEATHER AND/OR OBSTRUCTIONS TO VISIBILITY.

* - STATION DOES NOT REPORT WEATHER SUCH AS PRECIPITATION OR FOG.

+ - STATION NOT QUALITY CONTROLLED BY THE NATIONAL WEATHER SERVICE.
    USE DATA WITH CAUTION...ESPECIALLY DEWPOINT AND RELATIVE
    HUMIDITY OBSERVATIONS.

INZ001>003-010>013-019-020-102000-
NORTHWEST INDIANA

CITY           SKY/WX    TMP DP  RH WIND       PRES   REMARKS
GARY /AIRPORT/ CLOUDY    27  14  59 SW10      30.48F WCI  17
KNOX *+        CLOUDY    27  -9  20 SW9       30.46F WCI  17
LA PORTE +     CLOUDY    24  12  61 W9        30.46F WCI  14
MICHIGAN CITY+ CLOUDY    27  14  59 CALM      30.46F
MONTICELLO +   MOSUNNY   28  11  50 W8        30.47F WCI  20
RENSSELAER +     N/A     28  16  59 W7        30.47F WCI  21
VALPARAISO     MOSUNNY   25  13  60 W9        30.46F WCI  15

$$

LMZ046-743>745-102000-
SOUTHERN LAKE MICHIGAN

STATION/POSITION TIME  TEMP    WIND        PRES    WAVE
                       AIR SEA DIR/SP/G            HT
                 (UTC) (F)     (DEG/KT/KT) (MB)    (FT)

$$

INZ004-005-014>016-021>024-102000-
NORTH CENTRAL INDIANA

CITY           SKY/WX    TMP DP  RH WIND       PRES   REMARKS
ELKHART        CLOUDY    25  16  68 SW9       30.45F WCI  15
GOSHEN         CLOUDY    26  13  57 W12       30.44F WCI  16
LOGANSPORT +   MOSUNNY   28  16  59 W9        30.48F WCI  20
PERU/GRISSOM   CLOUDY    27  14  59 W9        30.45F WCI  17
ROCHESTER +    CLOUDY    30  19  64 W7        30.46F WCI  23
SOUTH BEND     CLOUDY    22  16  78 SW9       30.45F WCI  12
WARSAW +       FLURRIES  27  12  54 SW6       30.45F WCI  20

$$

INZ006>009-017-018-025>027-102000-
NORTHEAST INDIANA

CITY           SKY/WX    TMP DP  RH WIND       PRES   REMARKS
ANGOLA *+      CLOUDY    25  16  68 W10       30.42S WCI  15
AUBURN +       MOSUNNY   28  14  54 SW10G17   30.45F WCI  19
FORT WAYNE     FLURRIES  26  15  63 W15       30.46F WCI  14
HUNTINGTON +   CLOUDY    26  14  60 W10       30.45F WCI  16
KENDALLVILLE + CLOUDY    25  15  65 W10G16    30.43F WCI  15

$$

INZ028-029-035-036-043>045-051>053-102000-
WEST CENTRAL INDIANA

CITY           SKY/WX    TMP DP  RH WIND       PRES   REMARKS
CRAWFORDSVL +  CLOUDY    25  16  68 SW6       30.48F WCI  18
GREENCASTLE +  CLOUDY    28  21  74 SW5       30.48F WCI  23
LAFAYETTE      PTSUNNY   26  14  60 W5        30.48F WCI  20
TERRE HAUTE    CLOUDY    28  16  60 S7        30.51F WCI  21

$$

INZ030>032-037>040-046>048-054>057-064-065-102000-
CENTRAL INDIANA

CITY           SKY/WX    TMP DP  RH WIND       PRES   REMARKS
ANDERSON       MOSUNNY   27  16  63 W8        30.48F WCI  18
CP ATTERBURY + CLOUDY    30  18  59 CALM      30.50F
COLUMBUS       PTSUNNY   28  19  69 SW6       30.52F WCI  22
FISHERS *+     PTSUNNY   27  19  74 SW6       30.48F WCI  20
FRANKFORT +    MOSUNNY   31  18  58 W7        30.48F WCI  24
GREENWOOD *+   PTSUNNY   30  17  60 W7        30.49F WCI  23
INDIANAPOLIS   CLOUDY    28  16  60 SW9       30.48F WCI  19
-EAGLE CREEK   CLOUDY    28  15  58 SW5       30.48F WCI  23
KOKOMO +       MOSUNNY   27  17  66 W9        30.47F WCI  18
MARION +       CLOUDY    27  16  64 W8        30.47F WCI  18
MT COMFORT *+  MOSUNNY   27  16  63 W6        30.48F WCI  20
SHELBYVILLE    MOSUNNY   29  16  58 SW12      30.49F WCI  19
ZIONSVILLE +   CLOUDY    26  16  68 SW9       30.48F WCI  16

$$

INZ033-034-041-042-049-050-058-059-102000-
EAST CENTRAL INDIANA

CITY           SKY/WX    TMP DP  RH WIND       PRES   REMARKS
MUNCIE         PTSUNNY   28  16  60 W7        30.46F WCI  21

$$

INZ060-061-067>069-081>083-085>088-102000-
SOUTHWEST INDIANA

CITY           SKY/WX    TMP DP  RH WIND       PRES   REMARKS
EVANSVILLE     CLOUDY    35  15  44 E3        30.52F
HUNTINGBURG *+ CLOUDY    34  18  51 VRB3      30.52F
WASHINGTON +   PTSUNNY   29  19  67 S3        30.52F

$$

INZ062-063-066-070>080-084-089>092-102000-
SOUTH CENTRAL AND SOUTHEAST INDIANA

CITY           SKY/WX    TMP DP  RH WIND       PRES   REMARKS
BLOOMINGTON    CLOUDY    28  15  58 S6        30.49F WCI  22
MADISON *+     CLOUDY    32  16  51 SW5       30.52F WCI  27
SEYMOUR +      CLOUDY    30  18  59 SW5       30.52F WCI  25

$$





USA.gov is the U.S. government's official web portal to all federal, state and local government web resources and services.